SAS36P EGKK-EKCH

Flight info

Callsign SAS36P
Flight time 1h 34m
Altitude 37000
Route FRANE1Z FRANE M604 PAAVO Q295 SOMVA DCT MAVAS DCT ANDIK N873 JUIST DCT ROCZO DCT DOSUR DCT TALSA P729 TUDLO TUDLO4C
Aircraft A320/M-SDE3FGHIRWY/LB1

Departure

Time 2026-04-21 18:58
Airport London Gatwick Airport (EGKK)

Arrival

Time 2026-04-21 20:32
Airport Copenhagen Kastrup Airport (EKCH)
Time Latitude Longitude Altitude Speed Heading
2026-04-21 18:17 51.15821 -0.17689 208 ft 0 kts 347°
2026-04-21 18:40 51.15820 -0.17689 184 ft 2 kts 347°
2026-04-21 18:40 51.15804 -0.17683 207 ft 2 kts 347°
2026-04-21 18:40 51.15792 -0.17679 214 ft 2 kts 347°
2026-04-21 18:40 51.15770 -0.17671 214 ft 2 kts 347°
2026-04-21 18:41 51.15760 -0.17668 210 ft 0 kts 342°
2026-04-21 18:41 51.15746 -0.17658 216 ft 2 kts 290°
2026-04-21 18:41 51.15744 -0.17647 213 ft 0 kts 264°
2026-04-21 18:43 51.15743 -0.17648 213 ft 1 kts 264°
2026-04-21 18:43 51.15739 -0.17675 216 ft 4 kts 256°
2026-04-21 18:44 51.15729 -0.17743 208 ft 8 kts 257°
2026-04-21 18:44 51.15714 -0.17846 208 ft 11 kts 257°
2026-04-21 18:44 51.15696 -0.17979 204 ft 14 kts 258°
2026-04-21 18:44 51.15676 -0.18122 211 ft 14 kts 258°
2026-04-21 18:45 51.15654 -0.18291 204 ft 17 kts 258°
2026-04-21 18:45 51.15631 -0.18465 215 ft 14 kts 257°
2026-04-21 18:45 51.15607 -0.18627 206 ft 16 kts 257°
2026-04-21 18:45 51.15585 -0.18770 210 ft 11 kts 251°
2026-04-21 18:46 51.15520 -0.18816 211 ft 12 kts 167°
2026-04-21 18:46 51.15428 -0.18785 204 ft 15 kts 167°
2026-04-21 18:46 51.15320 -0.18746 206 ft 14 kts 171°
2026-04-21 18:46 51.15234 -0.18717 210 ft 11 kts 168°
2026-04-21 18:47 51.15150 -0.18713 209 ft 13 kts 210°
2026-04-21 18:47 51.15111 -0.18845 211 ft 13 kts 256°
2026-04-21 18:47 51.15094 -0.18976 207 ft 7 kts 257°
2026-04-21 18:47 51.15086 -0.19032 213 ft 0 kts 257°
2026-04-21 18:48 51.15083 -0.19065 210 ft 6 kts 261°
2026-04-21 18:48 51.15070 -0.19169 210 ft 14 kts 258°
2026-04-21 18:48 51.15048 -0.19333 204 ft 16 kts 258°
2026-04-21 18:48 51.15023 -0.19523 208 ft 19 kts 258°
2026-04-21 18:49 51.14996 -0.19701 212 ft 17 kts 255°
2026-04-21 18:49 51.14969 -0.19893 212 ft 19 kts 257°
2026-04-21 18:49 51.14948 -0.20037 205 ft 21 kts 257°
2026-04-21 18:49 51.14907 -0.20328 206 ft 16 kts 259°
2026-04-21 18:50 51.14883 -0.20509 209 ft 17 kts 259°
2026-04-21 18:50 51.14857 -0.20702 203 ft 19 kts 259°
2026-04-21 18:50 51.14832 -0.20895 204 ft 17 kts 258°
2026-04-21 18:50 51.14809 -0.21059 210 ft 12 kts 258°
2026-04-21 18:51 51.14782 -0.21197 208 ft 14 kts 252°
2026-04-21 18:51 51.14759 -0.21348 204 ft 12 kts 253°
2026-04-21 18:51 51.14723 -0.21399 204 ft 2 kts 184°
2026-04-21 18:51 51.14719 -0.21398 204 ft 0 kts 172°
2026-04-21 18:52 51.14694 -0.21390 207 ft 8 kts 164°
2026-04-21 18:52 51.14637 -0.21339 206 ft 11 kts 159°
2026-04-21 18:53 51.14556 -0.21289 207 ft 14 kts 144°
2026-04-21 18:53 51.14519 -0.21195 206 ft 7 kts 95°
2026-04-21 18:53 51.14521 -0.21172 209 ft 0 kts 79°
2026-04-21 18:57 51.14522 -0.21158 202 ft 9 kts 79°
2026-04-21 18:57 51.14638 -0.20322 206 ft 101 kts 77°
2026-04-21 18:58 51.14755 -0.19478 211 ft 134 kts 77°
2026-04-21 18:58 51.14969 -0.17916 604 ft 148 kts 76°
2026-04-21 18:58 51.15179 -0.16267 1274 ft 153 kts 78°
2026-04-21 18:58 51.15404 -0.14557 1798 ft 168 kts 76°
2026-04-21 18:59 51.15677 -0.12615 2223 ft 191 kts 77°
2026-04-21 18:59 51.15985 -0.10418 2675 ft 215 kts 78°
2026-04-21 18:59 51.16321 -0.08010 3423 ft 227 kts 78°
2026-04-21 18:59 51.16666 -0.05517 4340 ft 234 kts 78°
2026-04-21 19:00 51.16900 -0.02898 4846 ft 242 kts 90°
2026-04-21 19:00 51.16868 -0.00207 4981 ft 243 kts 92°
2026-04-21 19:00 51.16815 0.02482 5137 ft 243 kts 92°
2026-04-21 19:00 51.16757 0.05168 5148 ft 242 kts 92°
2026-04-21 19:01 51.16699 0.07847 5169 ft 242 kts 92°
2026-04-21 19:01 51.16644 0.10536 5184 ft 243 kts 92°
2026-04-21 19:01 51.16591 0.13224 5202 ft 243 kts 91°
2026-04-21 19:01 51.16582 0.15915 5221 ft 243 kts 83°
2026-04-21 19:02 51.17212 0.18380 5313 ft 244 kts 52°
2026-04-21 19:02 51.18606 0.20000 5839 ft 256 kts 30°
2026-04-21 19:02 51.20229 0.21132 6456 ft 260 kts 27°
2026-04-21 19:02 51.21912 0.22228 7086 ft 263 kts 26°
2026-04-21 19:03 51.23612 0.23334 7684 ft 265 kts 26°
2026-04-21 19:03 51.25325 0.24459 8290 ft 268 kts 26°
2026-04-21 19:03 51.27024 0.25682 8904 ft 267 kts 33°
2026-04-21 19:03 51.28638 0.27212 9723 ft 271 kts 34°
2026-04-21 19:04 51.30266 0.28774 10592 ft 275 kts 34°
2026-04-21 19:04 51.31958 0.30406 10983 ft 295 kts 33°
2026-04-21 19:04 51.33787 0.32175 11000 ft 319 kts 33°
2026-04-21 19:04 51.35726 0.34053 11470 ft 330 kts 34°
2026-04-21 19:05 51.37708 0.35966 12191 ft 335 kts 33°
2026-04-21 19:05 51.39713 0.37900 12900 ft 339 kts 32°
2026-04-21 19:05 51.41741 0.39856 13681 ft 341 kts 33°
2026-04-21 19:05 51.43784 0.41830 14339 ft 346 kts 32°
2026-04-21 19:06 51.45852 0.43836 15016 ft 348 kts 32°
2026-04-21 19:06 51.47933 0.45855 15665 ft 351 kts 32°
2026-04-21 19:06 51.50040 0.47899 16250 ft 356 kts 31°
2026-04-21 19:06 51.52158 0.49957 16959 ft 357 kts 32°
2026-04-21 19:07 51.54291 0.52031 17553 ft 361 kts 31°
2026-04-21 19:07 51.56447 0.54130 18274 ft 362 kts 31°
2026-04-21 19:07 51.58619 0.56245 18820 ft 368 kts 31°
2026-04-21 19:07 51.60818 0.58391 19411 ft 371 kts 31°
2026-04-21 19:08 51.63034 0.60557 20009 ft 375 kts 30°
2026-04-21 19:08 51.65281 0.62755 20571 ft 379 kts 29°
2026-04-21 19:08 51.67543 0.64968 21151 ft 383 kts 29°
2026-04-21 19:08 51.69836 0.67214 21683 ft 387 kts 29°
2026-04-21 19:09 51.72147 0.69484 22221 ft 391 kts 28°
2026-04-21 19:09 51.74479 0.71783 22735 ft 394 kts 28°
2026-04-21 19:09 51.76826 0.74098 23257 ft 397 kts 28°
2026-04-21 19:09 51.79168 0.76511 23778 ft 402 kts 33°
2026-04-21 19:10 51.81284 0.79533 24212 ft 410 kts 44°
2026-04-21 19:10 51.83047 0.83189 24637 ft 416 kts 55°
2026-04-21 19:10 51.84388 0.87378 25034 ft 423 kts 63°
2026-04-21 19:10 51.85551 0.91700 25411 ft 426 kts 63°
2026-04-21 19:11 51.86741 0.96098 25779 ft 429 kts 62°
2026-04-21 19:11 51.87946 1.00531 26204 ft 430 kts 63°
2026-04-21 19:11 51.89155 1.04978 26632 ft 432 kts 62°
2026-04-21 19:11 51.90364 1.09446 27008 ft 435 kts 62°
2026-04-21 19:12 51.91577 1.13950 27363 ft 438 kts 62°
2026-04-21 19:12 51.92797 1.18489 27717 ft 441 kts 62°
2026-04-21 19:12 51.94026 1.23065 28057 ft 445 kts 61°
2026-04-21 19:12 51.95263 1.27681 28407 ft 448 kts 61°
2026-04-21 19:13 51.96504 1.32326 28758 ft 451 kts 61°
2026-04-21 19:13 51.97752 1.37012 29070 ft 454 kts 60°
2026-04-21 19:13 51.99008 1.41738 29403 ft 457 kts 60°
2026-04-21 19:13 52.00267 1.46485 29718 ft 460 kts 60°
2026-04-21 19:14 52.01530 1.51265 30159 ft 460 kts 62°
2026-04-21 19:14 52.02787 1.56032 30652 ft 459 kts 61°
2026-04-21 19:14 52.04021 1.60724 31086 ft 457 kts 62°
2026-04-21 19:14 52.05266 1.65465 31546 ft 455 kts 63°
2026-04-21 19:15 52.06508 1.70190 31988 ft 454 kts 62°
2026-04-21 19:15 52.07747 1.74901 32422 ft 453 kts 62°
2026-04-21 19:15 52.08981 1.79611 32850 ft 453 kts 63°
2026-04-21 19:15 52.10213 1.84323 33277 ft 452 kts 63°
2026-04-21 19:16 52.11439 1.89030 33700 ft 452 kts 63°
2026-04-21 19:16 52.12662 1.93735 34134 ft 451 kts 63°
2026-04-21 19:16 52.13880 1.98436 34557 ft 450 kts 63°
2026-04-21 19:16 52.15092 2.03122 34971 ft 448 kts 63°
2026-04-21 19:17 52.17502 2.12465 35682 ft 447 kts 64°
2026-04-21 19:17 52.18705 2.17136 36002 ft 447 kts 64°
2026-04-21 19:17 52.19906 2.21809 36317 ft 447 kts 64°
2026-04-21 19:18 52.21102 2.26478 36624 ft 447 kts 63°
2026-04-21 19:18 52.22297 2.31156 36930 ft 447 kts 64°
2026-04-21 19:18 52.23490 2.35836 37221 ft 447 kts 64°
2026-04-21 19:18 52.24683 2.40523 37329 ft 449 kts 65°
2026-04-21 19:19 52.27082 2.49959 37362 ft 449 kts 64°
2026-04-21 19:19 52.29457 2.59359 37353 ft 447 kts 65°
2026-04-21 19:20 52.31543 2.68938 37355 ft 449 kts 71°
2026-04-21 19:20 52.33271 2.78750 37353 ft 449 kts 71°
2026-04-21 19:21 52.34982 2.88509 37355 ft 449 kts 69°
2026-04-21 19:21 52.37484 2.97782 37370 ft 445 kts 62°
2026-04-21 19:22 52.40159 3.07002 37368 ft 445 kts 61°
2026-04-21 19:22 52.42788 3.16106 37365 ft 445 kts 63°
2026-04-21 19:23 52.45436 3.25274 37362 ft 445 kts 61°
2026-04-21 19:23 52.48078 3.34448 37359 ft 445 kts 63°
2026-04-21 19:24 52.50720 3.43703 37355 ft 445 kts 63°
2026-04-21 19:24 52.53320 3.52835 37378 ft 444 kts 63°
2026-04-21 19:25 52.55927 3.62014 37379 ft 443 kts 63°
2026-04-21 19:25 52.58522 3.71189 37376 ft 442 kts 63°
2026-04-21 19:26 52.61108 3.80363 37384 ft 441 kts 63°
2026-04-21 19:26 52.63678 3.89542 37379 ft 441 kts 62°
2026-04-21 19:27 52.66239 3.98721 37377 ft 441 kts 64°
2026-04-21 19:27 52.68801 4.07903 37382 ft 441 kts 63°
2026-04-21 19:28 52.71348 4.17089 37388 ft 440 kts 64°
2026-04-21 19:28 52.74551 4.25574 37380 ft 436 kts 51°
2026-04-21 19:29 52.78266 4.33488 37367 ft 435 kts 51°
2026-04-21 19:29 52.81986 4.41380 37376 ft 435 kts 51°
2026-04-21 19:30 52.85695 4.49285 37376 ft 435 kts 51°
2026-04-21 19:30 52.89386 4.57223 37375 ft 435 kts 51°
2026-04-21 19:31 52.93073 4.65169 37376 ft 434 kts 52°
2026-04-21 19:31 52.96724 4.73051 37368 ft 434 kts 52°
2026-04-21 19:32 53.00393 4.80992 37366 ft 433 kts 52°
2026-04-21 19:32 53.04053 4.88932 37369 ft 433 kts 52°
2026-04-21 19:33 53.07703 4.96888 37387 ft 432 kts 52°
2026-04-21 19:33 53.11340 5.04860 37381 ft 432 kts 52°
2026-04-21 19:34 53.14979 5.12842 37379 ft 432 kts 53°
2026-04-21 19:34 53.18614 5.20827 37381 ft 432 kts 53°
2026-04-21 19:35 53.24052 5.32833 37389 ft 432 kts 53°
2026-04-21 19:36 53.27667 5.40854 37388 ft 432 kts 53°
2026-04-21 19:36 53.31276 5.48894 37381 ft 432 kts 53°
2026-04-21 19:37 53.34881 5.56937 37386 ft 432 kts 53°
2026-04-21 19:37 53.38486 5.64992 37393 ft 432 kts 53°
2026-04-21 19:38 53.42084 5.73061 37396 ft 432 kts 53°
2026-04-21 19:38 53.45069 5.79796 37398 ft 433 kts 53°
2026-04-21 19:39 53.49240 5.89221 37408 ft 433 kts 53°
2026-04-21 19:39 53.52824 5.97347 37402 ft 433 kts 53°
2026-04-21 19:40 53.56399 6.05488 37393 ft 433 kts 53°
2026-04-21 19:40 53.59972 6.13645 37390 ft 433 kts 54°
2026-04-21 19:41 53.63538 6.21799 37403 ft 432 kts 54°
2026-04-21 19:41 53.67096 6.29967 37411 ft 432 kts 54°
2026-04-21 19:42 53.70641 6.38147 37406 ft 431 kts 54°
2026-04-21 19:42 53.74180 6.46329 37411 ft 431 kts 54°
2026-04-21 19:43 53.77709 6.54522 37410 ft 431 kts 54°
2026-04-21 19:43 53.81235 6.62731 37418 ft 431 kts 54°
2026-04-21 19:44 53.84738 6.70904 37408 ft 431 kts 54°
2026-04-21 19:44 53.88251 6.79143 37411 ft 431 kts 54°
2026-04-21 19:45 53.91756 6.87393 37420 ft 431 kts 54°
2026-04-21 19:45 53.95258 6.95649 37419 ft 431 kts 54°
2026-04-21 19:46 53.98753 7.03917 37425 ft 430 kts 54°
2026-04-21 19:46 54.02235 7.12188 37422 ft 430 kts 54°
2026-04-21 19:47 54.05127 7.19067 37417 ft 430 kts 54°
2026-04-21 19:47 54.08606 7.27352 37409 ft 430 kts 54°
2026-04-21 19:48 54.12070 7.35663 37409 ft 430 kts 54°
2026-04-21 19:48 54.16087 7.45328 37434 ft 430 kts 54°
2026-04-21 19:49 54.18981 7.52300 37433 ft 429 kts 54°
2026-04-21 19:49 54.22422 7.60623 37424 ft 429 kts 55°
2026-04-21 19:50 54.25848 7.68955 37414 ft 428 kts 55°
2026-04-21 19:50 54.29272 7.77303 37418 ft 428 kts 55°
2026-04-21 19:51 54.32689 7.85660 37417 ft 428 kts 55°
2026-04-21 19:51 54.36080 7.93965 37418 ft 428 kts 55°
2026-04-21 19:52 54.39489 8.02345 37413 ft 428 kts 55°
2026-04-21 19:52 54.42884 8.10743 37420 ft 428 kts 55°
2026-04-21 19:53 54.46282 8.19150 37411 ft 428 kts 55°
2026-04-21 19:53 54.49672 8.27575 37403 ft 428 kts 55°
2026-04-21 19:54 54.53050 8.36014 37404 ft 428 kts 55°
2026-04-21 19:54 54.56426 8.44467 37410 ft 428 kts 55°
2026-04-21 19:55 54.59791 8.52931 37412 ft 428 kts 55°
2026-04-21 19:55 54.63158 8.61403 37416 ft 428 kts 56°
2026-04-21 19:56 54.66513 8.69893 37431 ft 428 kts 56°
2026-04-21 19:56 54.69862 8.78383 37399 ft 427 kts 56°
2026-04-21 19:56 54.71520 8.82598 36793 ft 430 kts 56°
2026-04-21 19:57 54.73193 8.86860 36153 ft 428 kts 56°
2026-04-21 19:57 54.74859 8.91105 35522 ft 425 kts 56°
2026-04-21 19:57 54.76515 8.95334 34912 ft 423 kts 56°
2026-04-21 19:57 54.78158 8.99539 34305 ft 420 kts 56°
2026-04-21 19:58 54.79790 9.03726 33606 ft 418 kts 57°
2026-04-21 19:58 54.81413 9.07900 32928 ft 417 kts 57°
2026-04-21 19:58 54.83025 9.12072 32261 ft 416 kts 57°
2026-04-21 19:58 54.84634 9.16236 31609 ft 415 kts 57°
2026-04-21 19:59 54.86320 9.20302 30972 ft 416 kts 52°
2026-04-21 19:59 54.88238 9.24084 30334 ft 416 kts 51°
2026-04-21 19:59 54.90152 9.27830 29608 ft 413 kts 51°
2026-04-21 19:59 54.92045 9.31546 28897 ft 408 kts 51°
2026-04-21 20:00 54.93905 9.35211 28468 ft 401 kts 51°
2026-04-21 20:00 54.97580 9.42498 28404 ft 401 kts 51°
2026-04-21 20:01 55.01253 9.49810 28410 ft 401 kts 51°
2026-04-21 20:01 55.04922 9.57129 28406 ft 401 kts 51°
2026-04-21 20:01 55.06761 9.60794 27998 ft 400 kts 51°
2026-04-21 20:02 55.08569 9.64449 27421 ft 395 kts 54°
2026-04-21 20:02 55.10117 9.68373 26848 ft 390 kts 61°
2026-04-21 20:02 55.11322 9.72579 26283 ft 385 kts 68°
2026-04-21 20:02 55.12203 9.76974 25728 ft 382 kts 73°
2026-04-21 20:03 55.12992 9.81381 25172 ft 379 kts 73°
2026-04-21 20:03 55.13776 9.85770 24638 ft 377 kts 73°
2026-04-21 20:03 55.14553 9.90134 24116 ft 375 kts 73°
2026-04-21 20:03 55.15323 9.94468 23535 ft 372 kts 72°
2026-04-21 20:04 55.16078 9.98710 22932 ft 368 kts 72°
2026-04-21 20:04 55.16837 10.02979 22334 ft 366 kts 72°
2026-04-21 20:04 55.17587 10.07221 21738 ft 364 kts 73°
2026-04-21 20:04 55.18329 10.11444 21171 ft 363 kts 73°
2026-04-21 20:05 55.19065 10.15653 20607 ft 361 kts 73°
2026-04-21 20:05 55.19799 10.19850 20053 ft 360 kts 73°
2026-04-21 20:05 55.20533 10.24025 19509 ft 358 kts 73°
2026-04-21 20:05 55.21262 10.28176 18975 ft 356 kts 73°
2026-04-21 20:06 55.21986 10.32315 18402 ft 354 kts 73°
2026-04-21 20:06 55.22701 10.36427 17802 ft 352 kts 73°
2026-04-21 20:06 55.23409 10.40517 17210 ft 349 kts 73°
2026-04-21 20:06 55.24112 10.44573 16633 ft 347 kts 73°
2026-04-21 20:07 55.24811 10.48603 16062 ft 344 kts 73°
2026-04-21 20:07 55.25503 10.52607 15506 ft 342 kts 73°
2026-04-21 20:07 55.26186 10.56585 14962 ft 340 kts 73°
2026-04-21 20:07 55.26862 10.60540 14430 ft 338 kts 73°
2026-04-21 20:08 55.27534 10.64476 13845 ft 335 kts 73°
2026-04-21 20:08 55.28200 10.68374 13264 ft 333 kts 73°
2026-04-21 20:08 55.28864 10.72246 12684 ft 330 kts 73°
2026-04-21 20:08 55.29522 10.76078 12414 ft 328 kts 73°
2026-04-21 20:09 55.30182 10.79924 12390 ft 330 kts 73°
2026-04-21 20:09 55.30844 10.83783 12388 ft 331 kts 73°
2026-04-21 20:09 55.31505 10.87657 12395 ft 332 kts 73°
2026-04-21 20:09 55.32165 10.91537 12396 ft 332 kts 73°
2026-04-21 20:10 55.32824 10.95420 12395 ft 332 kts 73°
2026-04-21 20:10 55.33480 10.99308 12396 ft 332 kts 73°
2026-04-21 20:10 55.34130 11.03198 12396 ft 332 kts 73°
2026-04-21 20:10 55.34776 11.07082 12393 ft 326 kts 73°
2026-04-21 20:11 55.35380 11.10740 12396 ft 307 kts 73°
2026-04-21 20:11 55.35966 11.14292 12396 ft 290 kts 73°
2026-04-21 20:11 55.36508 11.17576 12395 ft 280 kts 73°
2026-04-21 20:11 55.37048 11.20854 12396 ft 279 kts 73°
2026-04-21 20:12 55.37589 11.24129 12349 ft 280 kts 73°
2026-04-21 20:12 55.38133 11.27418 11971 ft 279 kts 73°
2026-04-21 20:12 55.38671 11.30692 11592 ft 278 kts 73°
2026-04-21 20:12 55.39208 11.33960 11212 ft 278 kts 73°
2026-04-21 20:13 55.39743 11.37216 10842 ft 277 kts 73°
2026-04-21 20:13 55.40275 11.40468 10469 ft 276 kts 73°
2026-04-21 20:13 55.40803 11.43717 10091 ft 276 kts 73°
2026-04-21 20:13 55.41328 11.46959 9687 ft 275 kts 73°
2026-04-21 20:14 55.41849 11.50199 9294 ft 275 kts 73°
2026-04-21 20:14 55.42367 11.53431 8897 ft 274 kts 73°
2026-04-21 20:14 55.42886 11.56655 8511 ft 273 kts 73°
2026-04-21 20:14 55.43411 11.59823 8388 ft 265 kts 69°
2026-04-21 20:15 55.44201 11.62746 8389 ft 265 kts 57°
2026-04-21 20:15 55.45338 11.65298 8394 ft 265 kts 45°
2026-04-21 20:15 55.46691 11.67444 8394 ft 265 kts 42°
2026-04-21 20:15 55.48076 11.69595 8394 ft 265 kts 42°
2026-04-21 20:16 55.49457 11.71751 8394 ft 265 kts 42°
2026-04-21 20:16 55.50836 11.73912 8394 ft 265 kts 42°
2026-04-21 20:16 55.52216 11.76078 8394 ft 265 kts 42°
2026-04-21 20:16 55.53594 11.78244 8392 ft 265 kts 42°
2026-04-21 20:17 55.54874 11.80572 8385 ft 265 kts 56°
2026-04-21 20:17 55.55677 11.83490 8387 ft 265 kts 66°
2026-04-21 20:17 55.56380 11.86502 8381 ft 266 kts 67°
2026-04-21 20:17 55.57082 11.89551 8006 ft 268 kts 67°
2026-04-21 20:18 55.57546 11.91571 7764 ft 268 kts 67°
2026-04-21 20:18 55.58480 11.95651 7261 ft 267 kts 67°
2026-04-21 20:18 55.59178 11.98697 6897 ft 267 kts 67°
2026-04-21 20:18 55.59876 12.01740 6506 ft 267 kts 67°
2026-04-21 20:19 55.60573 12.04776 6111 ft 266 kts 67°
2026-04-21 20:19 55.61270 12.07817 5726 ft 266 kts 67°
2026-04-21 20:19 55.61962 12.10841 5339 ft 265 kts 67°
2026-04-21 20:19 55.62650 12.13854 5030 ft 261 kts 67°
2026-04-21 20:20 55.63314 12.16771 5010 ft 252 kts 66°
2026-04-21 20:20 55.63964 12.19631 5006 ft 246 kts 67°
2026-04-21 20:20 55.64572 12.22322 5006 ft 231 kts 66°
2026-04-21 20:20 55.65153 12.24893 5010 ft 221 kts 66°
2026-04-21 20:21 55.65723 12.27412 5011 ft 220 kts 66°
2026-04-21 20:21 55.66295 12.29933 5013 ft 220 kts 66°
2026-04-21 20:21 55.66866 12.32457 4927 ft 222 kts 66°
2026-04-21 20:21 55.67442 12.35008 4574 ft 223 kts 66°
2026-04-21 20:22 55.68019 12.37562 4234 ft 223 kts 66°
2026-04-21 20:22 55.69157 12.42641 4015 ft 222 kts 65°
2026-04-21 20:22 55.69731 12.45191 4014 ft 223 kts 65°
2026-04-21 20:23 55.70304 12.47748 4011 ft 223 kts 65°
2026-04-21 20:23 55.70876 12.50300 4012 ft 223 kts 65°
2026-04-21 20:23 55.71538 12.52780 4011 ft 222 kts 60°
2026-04-21 20:23 55.72238 12.55220 4012 ft 222 kts 60°
2026-04-21 20:24 55.72935 12.57658 4010 ft 222 kts 60°
2026-04-21 20:24 55.73632 12.60104 4009 ft 222 kts 60°
2026-04-21 20:24 55.74336 12.62558 3830 ft 224 kts 58°
2026-04-21 20:24 55.75226 12.64789 3521 ft 220 kts 45°
2026-04-21 20:25 55.76342 12.66627 3209 ft 218 kts 38°
2026-04-21 20:25 55.77481 12.68387 3020 ft 217 kts 38°
2026-04-21 20:25 55.78613 12.70146 2964 ft 218 kts 38°
2026-04-21 20:25 55.79752 12.71916 2745 ft 214 kts 38°
2026-04-21 20:26 55.80848 12.73636 2587 ft 206 kts 38°
2026-04-21 20:26 55.81709 12.75623 2425 ft 205 kts 67°
2026-04-21 20:26 55.81763 12.78151 2274 ft 211 kts 103°
2026-04-21 20:26 55.81162 12.80554 2133 ft 214 kts 115°
2026-04-21 20:27 55.80439 12.82871 2032 ft 214 kts 116°
2026-04-21 20:27 55.79708 12.85145 2001 ft 215 kts 116°
2026-04-21 20:27 55.78762 12.87194 1996 ft 219 kts 144°
2026-04-21 20:27 55.77338 12.88074 2002 ft 220 kts 180°
2026-04-21 20:28 55.75904 12.87458 2006 ft 206 kts 215°
2026-04-21 20:28 55.74825 12.85915 2011 ft 197 kts 226°
2026-04-21 20:28 55.73809 12.84312 2027 ft 194 kts 226°
2026-04-21 20:28 55.72795 12.82721 2026 ft 195 kts 226°
2026-04-21 20:29 55.71808 12.81182 1996 ft 182 kts 226°
2026-04-21 20:29 55.70876 12.79729 2002 ft 176 kts 226°
2026-04-21 20:29 55.69960 12.78299 1943 ft 175 kts 226°
2026-04-21 20:29 55.69053 12.76884 1765 ft 172 kts 226°
2026-04-21 20:30 55.68177 12.75523 1550 ft 161 kts 226°
2026-04-21 20:30 55.67365 12.74261 1355 ft 152 kts 227°
2026-04-21 20:30 55.66581 12.73040 1148 ft 148 kts 227°
2026-04-21 20:30 55.65812 12.71844 943 ft 146 kts 226°
2026-04-21 20:31 55.65060 12.70674 745 ft 143 kts 225°
2026-04-21 20:31 55.64331 12.69542 545 ft 140 kts 224°
2026-04-21 20:31 55.63603 12.68412 350 ft 139 kts 224°
2026-04-21 20:31 55.62883 12.67295 160 ft 137 kts 224°
2026-04-21 20:32 55.62173 12.66194 25 ft 128 kts 223°
2026-04-21 20:32 55.61619 12.65337 22 ft 84 kts 222°
2026-04-21 20:32 55.61401 12.64994 25 ft 19 kts 222°
2026-04-21 20:32 55.61339 12.64870 25 ft 11 kts 230°
2026-04-21 20:33 55.61282 12.64716 25 ft 17 kts 242°
2026-04-21 20:33 55.61240 12.64538 24 ft 13 kts 249°
2026-04-21 20:33 55.61209 12.64372 24 ft 14 kts 250°
2026-04-21 20:33 55.61191 12.64205 24 ft 14 kts 279°
2026-04-21 20:34 55.61274 12.64118 24 ft 15 kts 12°
2026-04-21 20:34 55.61368 12.64212 24 ft 17 kts 34°
2026-04-21 20:34 55.61476 12.64335 25 ft 20 kts 33°
2026-04-21 20:34 55.61601 12.64473 26 ft 22 kts 30°
2026-04-21 20:35 55.61709 12.64591 24 ft 16 kts 35°
2026-04-21 20:35 55.61808 12.64716 24 ft 18 kts 32°
2026-04-21 20:35 55.61900 12.64822 26 ft 14 kts 32°
2026-04-21 20:35 55.61993 12.64928 25 ft 15 kts 33°
2026-04-21 20:36 55.62070 12.65018 24 ft 15 kts 34°
2026-04-21 20:36 55.62145 12.65105 26 ft 11 kts 33°
2026-04-21 20:36 55.62215 12.65170 24 ft 12 kts
2026-04-21 20:36 55.62280 12.65068 24 ft 15 kts 305°
2026-04-21 20:37 55.62336 12.64919 26 ft 15 kts 301°
2026-04-21 20:37 55.62385 12.64800 24 ft 10 kts 323°
2026-04-21 20:37 55.62462 12.64775 24 ft 13 kts 356°
2026-04-21 20:37 55.62548 12.64770 24 ft 10 kts 359°
2026-04-21 20:38 55.62602 12.64794 25 ft 8 kts 51°
2026-04-21 20:38 55.62608 12.64872 24 ft 4 kts 89°
2026-04-21 20:38 55.62608 12.64884 24 ft 0 kts 90°
2026-04-21 20:39 55.62608 12.64896 24 ft 0 kts 90°